This is the latest recevied weather packets stored in our database for station/object W4OTS. If no packets are shown the sender has not sent any weather packets the latest 10 day(s).
| Time | Temp. | Humidity | Pressure | Rain* | Wind** | Luminosity | Snow |
|---|---|---|---|---|---|---|---|
| 1778132074 | 16.67° C | 99% | 1014 hPa | 0 mm | - | 0 W/m² | - |
| 1778131773 | 16.67° C | 99% | 1014 hPa | 0 mm | - | 0 W/m² | - |
| 1778131470 | 16.67° C | 99% | 1015.2 hPa | 1.27 mm | - | 0 W/m² | - |
| 1778131167 | 16.67° C | 99% | 1015.6 hPa | 3.05 mm | - | 0 W/m² | - |
| 1778130865 | 16.67° C | 99% | 1015.2 hPa | 1.78 mm | - | 0 W/m² | - |
| 1778130561 | 16.67° C | 99% | 1015.2 hPa | 0 mm | - | 0 W/m² | - |
| 1778130258 | 16.67° C | 99% | 1015.1 hPa | 0 mm | - | 0 W/m² | - |
| 1778129955 | 16.67° C | 99% | 1015.3 hPa | 1.78 mm | - | 0 W/m² | - |
| 1778129651 | 16.67° C | 99% | 1015.6 hPa | 3.05 mm | - | 0 W/m² | - |
| 1778129349 | 16.67° C | 99% | 1015.5 hPa | 1.27 mm | - | 0 W/m² | - |
| 1778129045 | 16.67° C | 99% | 1015.4 hPa | 0 mm | - | 0 W/m² | - |
| 1778128741 | 16.67° C | 99% | 1015.6 hPa | 0 mm | - | 0 W/m² | - |
| 1778128438 | 16.67° C | 99% | 1015.3 hPa | 0 mm | - | 0 W/m² | - |
| 1778128134 | 16.67° C | 99% | 1015.3 hPa | 0 mm | - | 0 W/m² | - |
| 1778127830 | 16.67° C | 99% | 1015.2 hPa | 0 mm | - | 0 W/m² | - |
| 1778127527 | 16.67° C | 99% | 1015 hPa | 0 mm | - | 0 W/m² | - |
| 1778127223 | 16.67° C | 99% | 1014.7 hPa | 0 mm | - | 0 W/m² | - |
| 1778126921 | 16.67° C | 99% | 1015.3 hPa | 0 mm | - | 0 W/m² | - |
| 1778126616 | 16.67° C | 99% | 1014.7 hPa | 0 mm | - | 0 W/m² | - |
| 1778126307 | 16.67° C | 99% | 1014.6 hPa | 0 mm | - | 0 W/m² | - |
| 1778126002 | 16.67° C | 99% | 1014.6 hPa | 0 mm | - | 0 W/m² | - |
| 1778125701 | 16.67° C | 99% | 1015 hPa | 0 mm | - | 0 W/m² | - |
| 1778125397 | 16.67° C | 99% | 1014.9 hPa | 0 mm | - | 0 W/m² | - |
| 1778125095 | 16.67° C | 99% | 1015.2 hPa | 0 mm | - | 0 W/m² | - |
| 1778124793 | 16.67° C | 99% | 1015 hPa | 0 mm | - | 0 W/m² | - |
* Rain latest hour (hover to see other rain measurements)
** Current wind speed in m/s (hover to see current wind gust speed)